Wind_Speed
33 34 34 35 36 37 38 38 39 39 40 40 41 41 42 42 42 42 42 42 43 43 43 43 44 44 45 45 45 45 45 45 45 45 45 45 45 45 45 45 46 47 47
34 35 35 36 37 38 39 40 41 42 43 44 45 46 46 47 47 47 47 47 47 47 48 48 49 49 49 49 49 49 49 49 49 48 48 47 47 47 47 47 47 47 48
34 35 36 37 38 39 40 41 42 43 44 45 47 48 49 50 50 51 51 51 51 52 52 52 53 53 54 54 53 53 53 53 52 52 51 50 49 49 49 48 49 48 49
34 35 36 37 38 39 40 41 42 44 45 46 47 49 50 51 52 53 54 54 54 55 56 56 57 57 57 57 57 57 57 56 56 55 54 53 52 52 51 50 50 50 50
33 34 35 36 37 38 39 41 42 43 44 46 47 48 50 51 52 53 54 55 55 56 57 58 59 60 60 60 60 60 60 60 59 58 57 56 55 54 53 52 51 51 50
34 34 35 36 37 38 39 41 42 43 44 46 48 49 50 51 52 53 54 56 56 57 58 59 60 61 62 62 62 63 63 63 62 61 60 59 58 56 55 54 53 52 52
35 35 36 37 38 38 40 41 42 43 44 46 48 49 49 51 52 53 56 57 58 60 61 61 62 63 64 65 65 65 65 65 65 64 63 62 61 59 58 57 56 55 54
34 34 35 36 37 38 39 41 42 44 45 48 50 52 52 53 54 55 57 59 60 62 63 64 65 66 66 67 67 67 67 67 67 67 66 65 63 62 61 59 58 57 57
33 34 35 36 37 39 41 43 46 48 50 52 54 56 58 58 58 57 58 60 62 64 66 67 68 69 70 70 70 70 70 70 70 69 69 68 66 65 64 62 61 60 59
33 34 36 38 40 42 45 47 49 52 54 55 58 60 63 65 66 65 64 65 66 67 69 70 72 73 73 73 73 73 73 73 73 72 72 71 70 69 67 66 65 63 62
36 38 40 42 44 46 49 52 54 57 59 61 63 65 67 70 72 74 73 73 73 73 73 74 75 76 77 77 77 77 77 77 77 76 75 74 73 72 71 69 68 67 66
40 42 44 47 49 52 54 57 59 62 65 67 69 71 74 75 77 79 81 81 81 80 81 80 80 80 80 81 81 81 81 81 80 80 79 78 76 75 74 73 72 70 69
45 47 50 52 55 58 60 63 65 68 70 73 75 77 79 81 82 84 86 87 87 86 87 87 86 85 85 85 85 85 85 85 84 83 82 81 80 78 77 76 75 73 72
50 52 55 58 60 63 66 68 71 73 76 78 80 82 84 85 87 89 90 92 93 92 91 91 91 91 90 89 89 89 89 88 87 86 85 84 83 81 80 79 77 76 74
54 57 60 62 65 68 71 74 76 78 80 82 84 86 88 89 91 92 94 95 96 97 95 92 93 94 94 93 91 91 91 91 90 89 87 85 84 83 82 80 79 78 77
59 62 65 67 70 73 76 78 80 82 84 86 88 89 91 92 93 94 95 95 95 96 96 90 90 91 92 92 90 89 89 89 89 88 87 86 85 84 83 82 81 80 79
64 67 69 72 75 78 80 82 84 86 88 89 91 92 93 93 93 93 92 90 89 88 88 82 80 82 84 84 84 84 83 83 83 83 83 83 83 83 82 82 81 80 80
69 72 74 77 80 82 84 86 88 89 91 92 92 93 92 91 89 86 84 82 80 79 78 75 70 72 73 74 74 75 75 75 76 76 76 77 78 79 79 79 79 79 79
73 76 79 81 83 85 87 89 91 91 92 93 92 91 87 84 80 77 75 73 71 69 69 67 62 62 63 64 65 65 66 67 68 69 69 70 71 73 74 75 76 76 76
77 80 82 84 86 88 90 91 92 93 92 90 87 83 78 74 70 68 66 64 63 63 62 60 57 56 56 57 58 58 59 60 61 62 63 64 64 65 67 69 70 71 72
80 83 85 87 89 90 91 92 92 90 87 82 76 71 67 64 62 61 59 58 58 57 56 55 53 52 51 51 52 53 54 55 55 56 57 58 59 60 61 62 63 65 66
83 85 87 89 91 91 91 90 88 84 78 72 66 62 59 57 56 55 54 54 53 53 52 51 49 48 46 46 47 48 48 50 50 50 51 52 53 54 56 57 59 61 62
85 87 89 90 90 89 88 85 79 74 68 63 59 56 54 53 52 51 50 50 49 49 48 48 46 44 43 42 43 43 44 45 45 46 46 46 47 48 50 52 54 56 57
87 89 90 90 88 85 82 76 70 65 60 56 54 52 50 49 48 48 47 46 45 45 45 45 44 42 41 40 40 40 40 41 41 41 42 42 43 44 46 48 49 51 53
88 89 89 87 84 79 73 67 63 58 54 51 50 49 48 46 46 46 45 44 42 41 42 42 42 41 40 39 38 38 38 38 38 38 39 40 41 42 43 44 46 49 51
88 88 86 83 78 71 65 61 58 54 51 49 47 46 45 44 43 43 43 42 41 40 40 40 39 39 38 37 37 37 37 37 37 37 37 39 40 42 42 43 44 46 48
Wind_Direction
274 274 274 274 274 274 274 275 275 275 275 275 276 276 277 277 278 278 278 279 279 280 280 280 280 280 280 280 280 280 280 280 281 281 280 280 279 279 278 277 276 275 274
275 275 275 275 275 275 276 276 276 276 276 276 276 276 276 277 277 278 278 278 278 279 279 279 279 279 279 279 279 279 279 279 280 280 280 279 279 279 279 278 277 276 275
279 278 278 278 278 278 278 278 277 277 276 276 276 276 276 276 277 277 277 277 277 277 277 277 277 277 277 277 278 278 278 278 278 279 279 279 279 278 278 278 277 276 275
281 281 281 280 280 280 280 279 278 278 277 277 277 276 276 276 276 276 276 276 276 276 275 275 275 275 276 276 276 277 277 277 277 277 277 278 278 278 277 277 276 276 275
284 284 283 282 281 281 280 280 279 279 278 278 277 277 278 278 278 278 278 277 276 275 275 275 274 275 275 275 275 275 275 275 276 276 276 276 277 277 277 276 276 275 274
285 284 284 283 283 283 283 282 282 281 280 280 279 279 279 279 279 279 278 278 277 276 276 275 275 275 275 275 274 274 274 274 274 275 275 275 275 275 276 275 275 274 273
286 286 285 285 285 285 284 284 284 284 283 282 282 281 281 280 280 279 279 279 278 278 277 276 276 275 275 274 274 274 274 274 274 273 274 274 274 274 274 274 274 273 273
286 286 287 287 287 287 287 286 286 286 286 285 285 284 282 281 280 280 279 279 279 278 278 277 276 275 275 274 274 274 273 273 273 273 272 272 272 272 272 272 272 272 272
289 289 289 289 289 289 289 289 290 290 289 289 288 288 287 285 283 282 280 280 279 279 279 278 277 276 275 274 274 273 273 272 272 271 271 271 271 271 270 271 271 271 271
291 291 292 292 292 292 292 292 292 292 291 291 290 289 289 288 287 285 283 281 279 279 278 278 277 276 276 275 274 273 272 271 270 270 269 269 269 269 269 269 269 269 269
293 294 294 294 294 294 294 293 293 292 292 291 291 290 289 289 288 288 286 284 282 280 278 277 276 276 275 274 273 272 271 270 269 268 268 268 267 267 267 268 268 267 267
295 295 295 295 295 295 294 294 294 293 293 292 291 291 290 289 288 287 286 285 284 282 280 279 277 275 274 273 272 270 269 268 268 267 267 266 266 266 266 266 266 266 266
295 296 296 296 296 296 296 295 295 294 294 293 292 292 291 290 289 287 286 285 283 282 281 280 278 276 274 272 271 269 268 267 266 265 265 264 264 264 264 264 264 264 264
296 296 297 297 297 297 297 296 296 295 295 294 293 292 292 291 289 288 287 285 284 282 281 280 278 276 274 272 271 269 268 266 265 264 263 263 262 262 262 262 262 262 262
296 297 297 298 298 298 298 297 297 296 295 295 294 293 292 291 290 289 288 286 285 283 281 279 278 276 274 272 270 269 268 266 265 263 262 261 261 260 260 260 260 260 260
298 298 299 299 299 299 299 299 298 298 297 296 296 295 294 292 291 290 288 287 285 284 282 280 278 276 275 273 270 269 267 266 264 263 262 260 259 259 258 258 258 258 258
300 301 301 301 301 301 301 301 300 299 299 298 297 296 295 294 292 291 289 288 287 285 284 282 279 277 275 273 271 269 267 266 265 263 261 260 258 257 256 256 256 256 256
302 303 303 303 303 303 303 302 301 301 300 299 298 297 296 295 293 292 290 289 288 287 286 285 281 278 276 274 272 270 268 266 265 263 261 259 258 256 255 255 254 255 255
304 304 305 305 305 304 304 303 303 302 301 300 299 298 297 295 294 292 291 290 288 287 286 286 284 280 277 276 274 272 269 267 265 263 261 259 258 256 255 254 253 253 253
305 306 306 306 306 306 305 305 304 303 302 301 300 299 297 295 294 292 291 290 289 288 287 286 285 282 279 277 275 272 270 267 265 264 262 260 258 257 255 254 253 252 252
307 307 307 308 308 307 307 306 305 304 303 301 300 298 296 295 294 292 291 290 289 289 288 287 286 283 281 278 276 273 271 268 266 264 263 260 258 256 254 253 252 251 250
308 308 309 309 309 309 308 307 306 304 303 302 300 297 296 294 293 292 292 291 290 289 288 287 286 284 282 279 276 274 272 269 267 265 263 261 259 257 254 253 251 250 249
309 310 310 310 310 310 308 307 306 304 303 301 299 298 296 295 293 293 292 291 291 290 289 288 286 285 282 279 277 275 272 270 268 266 264 262 260 258 255 253 251 250 249
310 311 311 311 311 310 308 307 305 303 302 301 300 298 297 295 294 293 292 292 291 290 288 287 287 286 283 280 278 275 272 270 268 266 265 262 259 258 255 253 252 251 250
311 312 312 312 311 310 308 306 304 303 303 301 301 299 297 296 295 294 294 293 292 290 288 287 286 284 283 280 277 274 272 270 268 266 264 263 261 258 256 254 253 252 250
313 313 313 312 311 309 308 306 305 304 303 302 302 300 298 297 296 295 295 294 293 290 288 287 286 284 281 279 276 274 272 270 268 267 265 263 261 259 257 256 254 253 252
Height
5837 5836 5835 5834 5833 5832 5831 5831 5830 5829 5828 5827 5825 5824 5822 5821 5820 5819 5818 5817 5816 5815 5813 5812 5810 5809 5807 5806 5804 5803 5802 5801 5799 5798 5797 5796 5795 5794 5793 5792 5791 5791 5790
5830 5829 5828 5827 5825 5824 5823 5822 5821 5820 5819 5817 5816 5814 5813 5811 5810 5809 5808 5807 5806 5804 5802 5801 5799 5797 5796 5794 5793 5792 5790 5789 5788 5787 5786 5785 5784 5783 5782 5781 5780 5779 5779
5823 5822 5820 5819 5817 5816 5814 5813 5811 5810 5808 5807 5805 5803 5802 5800 5799 5797 5796 5795 5794 5792 5790 5788 5786 5784 5783 5781 5780 5779 5778 5776 5775 5774 5773 5773 5772 5771 5770 5769 5768 5767 5767
5816 5814 5813 5811 5809 5807 5805 5803 5801 5800 5798 5796 5794 5792 5790 5788 5787 5785 5783 5782 5780 5779 5776 5774 5772 5770 5769 5767 5766 5765 5764 5763 5761 5761 5760 5759 5758 5758 5757 5756 5756 5755 5754
5808 5806 5804 5802 5800 5798 5795 5793 5791 5789 5787 5785 5782 5780 5778 5776 5774 5772 5770 5768 5766 5764 5762 5760 5758 5756 5754 5753 5751 5750 5749 5748 5747 5746 5745 5745 5744 5744 5743 5743 5742 5742 5741
5800 5798 5796 5793 5791 5789 5786 5783 5781 5778 5776 5773 5771 5769 5767 5764 5762 5760 5757 5754 5752 5749 5747 5745 5743 5741 5739 5738 5736 5734 5733 5732 5731 5730 5730 5730 5729 5729 5729 5729 5728 5728 5728
5792 5789 5787 5784 5782 5779 5776 5773 5770 5768 5765 5762 5759 5757 5755 5753 5750 5747 5743 5740 5738 5735 5732 5730 5727 5725 5724 5722 5720 5718 5717 5716 5715 5714 5714 5714 5714 5714 5714 5714 5714 5713 5713
5783 5780 5778 5775 5772 5770 5766 5763 5760 5757 5754 5750 5746 5743 5742 5741 5737 5735 5730 5726 5723 5719 5716 5713 5711 5709 5707 5705 5703 5701 5700 5699 5698 5697 5697 5697 5697 5697 5697 5698 5698 5698 5698
5774 5772 5769 5766 5763 5760 5757 5753 5749 5746 5742 5738 5733 5728 5725 5723 5721 5721 5717 5713 5707 5703 5700 5696 5693 5690 5688 5687 5686 5684 5682 5681 5680 5679 5679 5679 5679 5679 5680 5681 5681 5682 5682
5766 5763 5760 5757 5754 5750 5746 5742 5737 5733 5729 5725 5720 5715 5709 5704 5700 5699 5699 5696 5692 5688 5683 5678 5675 5671 5668 5667 5666 5665 5663 5661 5660 5660 5660 5660 5660 5661 5662 5662 5663 5664 5665
5758 5755 5751 5747 5743 5739 5735 5730 5725 5720 5715 5710 5704 5699 5694 5688 5681 5676 5676 5674 5671 5668 5664 5660 5655 5652 5648 5645 5644 5643 5640 5639 5638 5638 5639 5639 5640 5641 5642 5643 5644 5646 5647
5749 5745 5741 5737 5732 5728 5723 5717 5712 5706 5700 5694 5688 5681 5675 5669 5664 5656 5652 5650 5646 5644 5640 5637 5634 5630 5626 5622 5620 5619 5616 5615 5615 5616 5616 5617 5619 5620 5621 5623 5624 5626 5628
5739 5735 5730 5725 5720 5714 5709 5703 5697 5690 5683 5676 5670 5662 5655 5648 5641 5634 5627 5624 5620 5619 5615 5612 5608 5604 5600 5596 5594 5592 5590 5590 5590 5591 5593 5594 5595 5597 5599 5601 5603 5605 5607
5728 5723 5718 5712 5706 5700 5693 5686 5680 5672 5665 5657 5649 5641 5633 5626 5617 5609 5601 5595 5591 5591 5588 5586 5579 5575 5572 5569 5566 5562 5562 5562 5563 5565 5567 5569 5571 5573 5576 5578 5581 5584 5586
5716 5710 5704 5698 5691 5684 5676 5669 5661 5653 5644 5636 5627 5618 5609 5601 5591 5583 5574 5566 5558 5556 5560 5561 5551 5544 5539 5539 5537 5532 5531 5533 5534 5536 5539 5543 5546 5549 5552 5555 5558 5561 5564
5702 5696 5689 5682 5674 5666 5657 5649 5640 5631 5622 5613 5603 5594 5584 5574 5564 5555 5546 5537 5528 5520 5521 5533 5522 5513 5506 5507 5506 5503 5502 5501 5504 5507 5511 5515 5519 5523 5526 5530 5534 5537 5541
5686 5679 5671 5664 5655 5646 5636 5627 5618 5608 5598 5588 5577 5566 5557 5545 5535 5526 5516 5508 5500 5491 5486 5497 5494 5485 5478 5476 5476 5475 5474 5473 5475 5479 5482 5486 5491 5496 5500 5504 5509 5513 5517
5669 5661 5653 5644 5635 5625 5614 5604 5594 5583 5572 5561 5550 5539 5528 5516 5507 5497 5489 5481 5474 5467 5460 5463 5468 5459 5453 5450 5449 5449 5448 5447 5449 5452 5455 5459 5464 5469 5474 5479 5484 5489 5493
5652 5643 5633 5624 5614 5603 5591 5580 5568 5558 5546 5534 5523 5511 5501 5490 5481 5473 5465 5458 5452 5446 5440 5438 5441 5437 5432 5428 5426 5426 5425 5424 5425 5428 5431 5434 5439 5444 5449 5455 5460 5465 5470
5633 5623 5613 5602 5591 5580 5567 5555 5543 5532 5520 5508 5496 5485 5476 5466 5459 5451 5445 5439 5433 5427 5423 5419 5419 5417 5413 5409 5406 5406 5405 5404 5406 5407 5410 5414 5418 5422 5427 5433 5438 5443 5448
5614 5603 5592 5580 5568 5556 5543 5530 5518 5506 5495 5485 5474 5464 5455 5447 5440 5433 5427 5422 5416 5411 5407 5403 5401 5398 5396 5392 5390 5388 5387 5387 5388 5390 5392 5395 5399 5403 5407 5412 5416 5421 5426
5594 5582 5570 5558 5545 5532 5518 5504 5491 5481 5472 5462 5454 5446 5438 5431 5425 5418 5412 5406 5401 5396 5392 5388 5385 5383 5381 5378 5375 5373 5372 5372 5374 5376 5375 5378 5381 5385 5389 5394 5398 5402 5407
5574 5562 5549 5536 5523 5509 5495 5482 5469 5459 5451 5443 5436 5429 5422 5416 5409 5404 5398 5393 5388 5382 5378 5374 5371 5369 5366 5364 5362 5360 5359 5359 5359 5360 5362 5364 5366 5369 5372 5376 5380 5384 5389
5553 5540 5527 5514 5500 5487 5473 5461 5450 5441 5434 5427 5419 5413 5407 5401 5395 5389 5384 5380 5375 5370 5365 5361 5358 5356 5353 5351 5349 5348 5346 5346 5347 5348 5349 5351 5352 5354 5357 5360 5364 5368 5372
5532 5519 5505 5492 5478 5466 5453 5442 5432 5425 5419 5412 5406 5399 5393 5388 5382 5376 5371 5367 5363 5359 5354 5350 5346 5343 5341 5339 5337 5336 5335 5335 5335 5336 5337 5338 5340 5341 5343 5347 5350 5353 5357
5510 5498 5485 5471 5458 5447 5436 5426 5416 5410 5404 5399 5393 5386 5380 5374 5369 5363 5358 5354 5350 5346 5342 5339 5335 5332 5330 5328 5326 5325 5324 5324 5324 5325 5326 5326 5327 5328 5331 5334 5336 5339 5342